,,Stat1,,Stat2,,Stat3,,Stat4,,Wind1,,Wind1,
time,status,PR1M_SUM,status,RH1M_AVG,status,SR1M_AVG,status,TA1M_AVG,status,W1dAve1m,status,W1sAve1m,
1999-08-11, 00:00:01,VALID,0,VALID,98.1755,VALID,-0.0509425,VALID,18.9779,VALID,228,VALID,1.92208,
1999-08-11, 00:01:00,VALID,0,VALID,98.2098,VALID,0,VALID,18.9714,VALID,218,VALID,2.22656,
1999-08-11, 00:02:00,VALID,0,VALID,98.2378,VALID,-0.0169808,VALID,18.9486,VALID,216,VALID,2.13722,
1999-08-11, 00:03:00,VALID,0,VALID,98.2912,VALID,-0.0169808,VALID,18.9456,VALID,212,VALID,1.92887,
1999-08-11, 00:04:00,VALID,0,VALID,98.3294,VALID,0,VALID,18.9486,VALID,216,VALID,1.77225,
1999-08-11, 00:05:00,VALID,0,VALID,98.3484,VALID,0.0169808,VALID,18.9423,VALID,219,VALID,2.09164,
1999-08-11, 00:06:00,VALID,0,VALID,98.3535,VALID,-0.0169808,VALID,18.949,VALID,221,VALID,1.38281,
1999-08-11, 00:07:00,VALID,0,VALID,98.3713,VALID,0,VALID,18.9451,VALID,219,VALID,1.65816,
1999-08-11, 00:08:00,VALID,0,VALID,98.3662,VALID,0,VALID,18.9582,VALID,220,VALID,1.91016,
1999-08-11, 00:09:00,VALID,0,VALID,98.3535,VALID,0,VALID,18.9841,VALID,224,VALID,2.10513,
1999-08-11, 00:10:00,VALID,0,VALID,98.2734,VALID,-0.0169808,VALID,18.9906,VALID,208,VALID,1.34519,
1999-08-11, 00:11:00,VALID,0,VALID,98.206,VALID,0,VALID,18.997,VALID,213,VALID,1.38405,
1999-08-11, 00:12:00,VALID,0,VALID,98.1145,VALID,0.0169808,VALID,19.0035,VALID,217,VALID,1.79603,
1999-08-11, 00:13:00,VALID,0,VALID,97.9453,VALID,0.0169808,VALID,18.9906,VALID,212,VALID,1.59037,
1999-08-11, 00:14:00,VALID,0,VALID,97.794,VALID,0.0169808,VALID,19.0032,VALID,205,VALID,1.93708,
1999-08-11, 00:15:00,VALID,0,VALID,97.6529,VALID,0,VALID,19.0129,VALID,219,VALID,1.54788,
1999-08-11, 00:16:00,VALID,0,VALID,97.5422,VALID,-0.0169808,VALID,19.0328,VALID,208,VALID,1.66955,
1999-08-11, 00:17:00,VALID,0,VALID,97.4685,VALID,0,VALID,19.036,VALID,209,VALID,1.34663,
1999-08-11, 00:18:00,VALID,0,VALID,97.3655,VALID,0,VALID,19.0261,VALID,215,VALID,1.41617,
1999-08-11, 00:19:00,VALID,0,VALID,97.1875,VALID,0,VALID,19.0326,VALID,206,VALID,1.80701,
1999-08-11, 00:20:00,VALID,0,VALID,96.9789,VALID,0,VALID,19.0388,VALID,222,VALID,2.4899,
1999-08-11, 00:21:00,VALID,0,VALID,96.7424,VALID,0,VALID,19.0713,VALID,222,VALID,2.88068,
1999-08-11, 00:22:01,VALID,0,VALID,96.4588,VALID,0,VALID,19.1002,VALID,225,VALID,2.47456,
1999-08-11, 00:23:00,VALID,0,VALID,96.2516,VALID,0,VALID,19.1397,VALID,227,VALID,2.48205,
1999-08-11, 00:24:00,VALID,0,VALID,96.1358,VALID,0,VALID,19.1556,VALID,218,VALID,2.3864,
1999-08-11, 00:25:00,VALID,0,VALID,96.0252,VALID,-0.0169808,VALID,19.1715,VALID,206,VALID,2.52924,
1999-08-11, 00:26:00,VALID,0,VALID,95.7785,VALID,-0.0169808,VALID,19.1717,VALID,227,VALID,2.86205,
1999-08-11, 00:27:00,VALID,0,VALID,95.4352,VALID,-0.0169808,VALID,19.1879,VALID,224,VALID,2.69342,
1999-08-11, 00:28:00,VALID,0,VALID,95.3119,VALID,-0.0169808,VALID,19.2207,VALID,219,VALID,2.52969,
1999-08-11, 00:29:00,VALID,0,VALID,95.3055,VALID,-0.0169808,VALID,19.2304,VALID,222,VALID,3.03845,
1999-08-11, 00:30:00,VALID,0,VALID,95.3258,VALID,-0.0339617,VALID,19.2366,VALID,218,VALID,2.72965,
1999-08-11, 00:31:00,VALID,0,VALID,95.3297,VALID,-0.0169808,VALID,19.2336,VALID,226,VALID,2.92044,
1999-08-11, 00:32:01,VALID,0,VALID,95.3029,VALID,0,VALID,19.2137,VALID,222,VALID,3.12007,
1999-08-11, 00:33:01,VALID,0,VALID,95.2864,VALID,-0.0339617,VALID,19.1909,VALID,225,VALID,2.87085,
1999-08-11, 00:34:00,VALID,0,VALID,95.1415,VALID,-0.0169808,VALID,19.2015,VALID,219,VALID,2.91768,
1999-08-11, 00:35:00,VALID,0,VALID,95.1974,VALID,-0.0339617,VALID,19.1944,VALID,219,VALID,2.81799,
1999-08-11, 00:36:00,VALID,0,VALID,95.1135,VALID,-0.0339617,VALID,19.1971,VALID,224,VALID,2.39129,
1999-08-11, 00:37:00,VALID,0,VALID,94.8299,VALID,-0.0169808,VALID,19.2175,VALID,201,VALID,2.23335,
1999-08-11, 00:38:00,VALID,0,VALID,94.5044,VALID,0,VALID,19.2299,VALID,193,VALID,1.62424,
1999-08-11, 00:39:00,VALID,0,VALID,93.9347,VALID,0,VALID,19.2722,VALID,212,VALID,2.73627,
1999-08-11, 00:40:00,VALID,0,VALID,93.3701,VALID,0,VALID,19.3209,VALID,207,VALID,2.58774,
1999-08-11, 00:41:00,VALID,0,VALID,93.3142,VALID,0,VALID,19.3457,VALID,202,VALID,2.03104,
1999-08-11, 00:42:00,VALID,0,VALID,93.3828,VALID,0,VALID,19.3589,VALID,195,VALID,2.43581,
1999-08-11, 00:43:00,VALID,0,VALID,93.4261,VALID,0,VALID,19.3621,VALID,194,VALID,2.58482,
1999-08-11, 00:44:01,VALID,0,VALID,93.3905,VALID,0,VALID,19.3716,VALID,189,VALID,2.4815,
1999-08-11, 00:45:00,VALID,0,VALID,93.4426,VALID,0,VALID,19.3718,VALID,204,VALID,3.06913,
1999-08-11, 00:46:00,VALID,0,VALID,93.5418,VALID,0,VALID,19.3818,VALID,211,VALID,2.26523,
1999-08-11, 00:47:00,VALID,0,VALID,93.674,VALID,0,VALID,19.4014,VALID,190,VALID,2.38919,
1999-08-11, 00:48:00,VALID,0,VALID,93.8266,VALID,0,VALID,19.4111,VALID,141,VALID,1.37438,
1999-08-11, 00:49:00,VALID,0,VALID,93.908,VALID,0,VALID,19.3917,VALID,189,VALID,2.38199,
1999-08-11, 00:50:00,VALID,0,VALID,94.1407,VALID,-0.0339617,VALID,19.3758,VALID,185,VALID,1.15954,
1999-08-11, 00:51:00,VALID,0,VALID,94.2602,VALID,0,VALID,19.34,VALID,188,VALID,1.93311,
1999-08-11, 00:52:00,VALID,0,VALID,94.1903,VALID,0,VALID,19.3462,VALID,196,VALID,1.72675,
1999-08-11, 00:53:00,VALID,0,VALID,94.2297,VALID,-0.0169808,VALID,19.3495,VALID,186,VALID,1.21453,
1999-08-11, 00:54:00,VALID,0,VALID,94.2539,VALID,0,VALID,19.3393,VALID,223,VALID,1.57433,
1999-08-11, 00:55:01,VALID,0,VALID,94.2818,VALID,0,VALID,19.3395,VALID,224,VALID,1.81497,
1999-08-11, 00:56:00,VALID,0,VALID,94.4026,VALID,-0.0169808,VALID,19.3234,VALID,204,VALID,1.53887,
1999-08-11, 00:57:00,VALID,0,VALID,94.498,VALID,0.0169808,VALID,19.2973,VALID,206,VALID,1.75024,
1999-08-11, 00:58:00,VALID,0,VALID,94.6074,VALID,0,VALID,19.2781,VALID,204,VALID,0.995192,
1999-08-11, 00:59:00,VALID,0,VALID,94.7511,VALID,0,VALID,19.2518,VALID,202,VALID,0.997044,
1999-08-11, 01:00:00,VALID,0,VALID,94.882,VALID,0,VALID,19.2262,VALID,210,VALID,1.16913,
1999-08-11, 01:01:00,VALID,0,VALID,94.9227,VALID,0.0169808,VALID,19.213,VALID,209,VALID,1.25112,
1999-08-11, 01:02:00,VALID,0,VALID,94.8655,VALID,0,VALID,19.2267,VALID,193,VALID,1.75637,
1999-08-11, 01:03:00,VALID,0,VALID,94.7918,VALID,0,VALID,19.2262,VALID,195,VALID,1.60393,
1999-08-11, 01:04:00,VALID,0,VALID,94.8388,VALID,0.0679233,VALID,19.2294,VALID,191,VALID,0.904883,
1999-08-11, 01:05:00,VALID,0,VALID,94.8185,VALID,0.0169808,VALID,19.2294,VALID,184,VALID,0.816817,
1999-08-11, 01:06:01,VALID,0,VALID,94.7714,VALID,0,VALID,19.2294,VALID,179,VALID,1.07319,
1999-08-11, 01:07:00,VALID,0,VALID,94.7574,VALID,0,VALID,19.2264,VALID,185,VALID,1.08512,
1999-08-11, 01:08:00,VALID,0,VALID,94.7612,VALID,-0.0169808,VALID,19.2331,VALID,189,VALID,1.15831,
1999-08-11, 01:09:00,VALID,0,VALID,94.5972,VALID,0,VALID,19.2324,VALID,193,VALID,1.28101,
1999-08-11, 01:10:00,VALID,0,VALID,94.5603,VALID,0,VALID,19.2652,VALID,190,VALID,1.24676,
1999-08-11, 01:11:00,VALID,0,VALID,94.5133,VALID,0,VALID,19.262,VALID,180,VALID,1.64569,
1999-08-11, 01:12:00,VALID,0,VALID,94.4624,VALID,0,VALID,19.2714,VALID,183,VALID,1.06585,
1999-08-11, 01:13:00,VALID,0,VALID,94.4777,VALID,0,VALID,19.2717,VALID,192,VALID,1.15152,
1999-08-11, 01:14:00,VALID,0,VALID,94.4294,VALID,0,VALID,19.2684,VALID,192,VALID,1.31593,
1999-08-11, 01:15:00,VALID,0,VALID,94.4421,VALID,-0.0339617,VALID,19.2749,VALID,168,VALID,1.14063,
1999-08-11, 01:16:01,VALID,0,VALID,94.498,VALID,0,VALID,19.2585,VALID,157,VALID,0.589744,
1999-08-11, 01:17:00,VALID,0,VALID,94.5832,VALID,0.0169808,VALID,19.2456,VALID,148,VALID,1.13957,
1999-08-11, 01:18:00,VALID,0,VALID,94.6875,VALID,-0.0169808,VALID,19.2135,VALID,149,VALID,1.44806,
1999-08-11, 01:19:00,VALID,0,VALID,94.6938,VALID,-0.0509425,VALID,19.2008,VALID,146,VALID,1.67344,
1999-08-11, 01:20:00,VALID,0,VALID,94.732,VALID,-0.0169808,VALID,19.2008,VALID,137,VALID,1.31394,
1999-08-11, 01:21:00,VALID,0,VALID,94.8261,VALID,0,VALID,19.1946,VALID,149,VALID,1.05019,
1999-08-11, 01:22:00,VALID,0,VALID,94.8859,VALID,0,VALID,19.1553,VALID,151,VALID,1.12129,
1999-08-11, 01:23:00,VALID,0,VALID,94.9444,VALID,0,VALID,19.1628,VALID,169,VALID,1.15193,
1999-08-11, 01:24:00,VALID,0,VALID,94.9952,VALID,0,VALID,19.133,VALID,196,VALID,1.02673,
1999-08-11, 01:25:00,VALID,0,VALID,94.98,VALID,-0.0169808,VALID,19.1295,VALID,190,VALID,1.41283,
1999-08-11, 01:26:01,VALID,0,VALID,94.9253,VALID,-0.0169808,VALID,19.1332,VALID,189,VALID,1.60567,
1999-08-11, 01:27:00,VALID,0,VALID,94.9863,VALID,0,VALID,19.1367,VALID,203,VALID,1.08618,
1999-08-11, 01:28:00,VALID,0,VALID,95.0385,VALID,0,VALID,19.1233,VALID,193,VALID,1.48266,
1999-08-11, 01:29:00,VALID,0,VALID,95.1236,VALID,0,VALID,19.1103,VALID,195,VALID,1.43687,
1999-08-11, 01:30:00,VALID,0,VALID,95.2114,VALID,0.0339617,VALID,19.0776,VALID,204,VALID,1.78705,
1999-08-11, 01:31:00,VALID,0,VALID,95.3119,VALID,0,VALID,19.0716,VALID,191,VALID,1.61801,
1999-08-11, 01:32:00,VALID,0,VALID,95.3869,VALID,0.0169808,VALID,19.0718,VALID,213,VALID,1.83918,
1999-08-11, 01:33:00,VALID,0,VALID,95.4148,VALID,0,VALID,19.0559,VALID,208,VALID,1.74029,
1999-08-11, 01:34:00,VALID,0,VALID,95.4123,VALID,0,VALID,19.0559,VALID,206,VALID,1.28966,
1999-08-11, 01:35:00,VALID,0,VALID,95.322,VALID,0.0169808,VALID,19.049,VALID,210,VALID,1.21389,
1999-08-11, 01:36:00,VALID,0,VALID,95.2038,VALID,0,VALID,19.0723,VALID,200,VALID,1.7766,
1999-08-11, 01:37:00,VALID,0,VALID,95.0397,VALID,0,VALID,19.0944,VALID,202,VALID,1.62991,
1999-08-11, 01:38:01,VALID,0,VALID,94.7918,VALID,0,VALID,19.0972,VALID,198,VALID,1.41221,
1999-08-11, 01:39:00,VALID,0,VALID,94.4446,VALID,0.0169808,VALID,19.1233,VALID,192,VALID,1.79735,
1999-08-11, 01:40:00,VALID,0,VALID,94.3276,VALID,0.0169808,VALID,19.1658,VALID,203,VALID,1.28652,
1999-08-11, 01:41:00,VALID,0,VALID,94.2157,VALID,0.0169808,VALID,19.1787,VALID,213,VALID,1.07669,
1999-08-11, 01:42:00,VALID,0,VALID,94.1572,VALID,0.0339617,VALID,19.1747,VALID,213,VALID,1.20498,
1999-08-11, 01:43:00,VALID,0,VALID,94.1445,VALID,0.0169808,VALID,19.172,VALID,194,VALID,1.11287,
1999-08-11, 01:44:00,VALID,0,VALID,94.2666,VALID,0.0169808,VALID,19.1586,VALID,203,VALID,0.875206,
1999-08-11, 01:45:00,VALID,0,VALID,94.32,VALID,0.0339617,VALID,19.1392,VALID,203,VALID,1.17065,
1999-08-11, 01:46:00,VALID,0,VALID,94.1941,VALID,0.0169808,VALID,19.1297,VALID,201,VALID,1.48114,
1999-08-11, 01:47:00,VALID,0,VALID,94.1115,VALID,0.0169808,VALID,19.1334,VALID,201,VALID,1.2103,
1999-08-11, 01:48:00,VALID,0,VALID,93.8393,VALID,0,VALID,19.1397,VALID,214,VALID,1.29621,
1999-08-11, 01:49:01,VALID,0,VALID,93.6511,VALID,0.0169808,VALID,19.1759,VALID,213,VALID,0.850946,
1999-08-11, 01:50:00,VALID,0,VALID,93.0662,VALID,0.0169808,VALID,19.1849,VALID,221,VALID,1.29516,
1999-08-11, 01:51:00,VALID,0,VALID,92.658,VALID,0,VALID,19.2299,VALID,224,VALID,0.903883,
1999-08-11, 01:52:00,VALID,0,VALID,92.5385,VALID,0,VALID,19.2749,VALID,223,VALID,0.84395,
1999-08-11, 01:53:00,VALID,0,VALID,92.5804,VALID,0,VALID,19.2918,VALID,229,VALID,1.07918,
1999-08-11, 01:54:00,VALID,0,VALID,92.2371,VALID,0,VALID,19.3015,VALID,213,VALID,1.03315,
1999-08-11, 01:55:00,VALID,0,VALID,92.4469,VALID,0,VALID,19.3137,VALID,215,VALID,0.682813,
1999-08-11, 01:56:00,VALID,0,VALID,92.7496,VALID,0,VALID,19.3204,VALID,190,VALID,0.570107,
1999-08-11, 01:57:00,VALID,0,VALID,92.9505,VALID,0.0509425,VALID,19.2814,VALID,199,VALID,0.55232,
1999-08-11, 01:58:00,VALID,0,VALID,92.8933,VALID,0.0339617,VALID,19.2394,VALID,193,VALID,0.417773,
1999-08-11, 01:59:00,VALID,0,VALID,92.6466,VALID,0,VALID,19.207,VALID,197,VALID,0.961349,
1999-08-11, 02:00:00,VALID,0,VALID,92.4342,VALID,0,VALID,19.2272,VALID,197,VALID,1.04605,
1999-08-11, 02:01:00,VALID,0,VALID,92.1608,VALID,0,VALID,19.2394,VALID,206,VALID,1.29441,
1999-08-11, 02:02:00,VALID,0,VALID,92.0667,VALID,0,VALID,19.2846,VALID,197,VALID,1.11513,
1999-08-11, 02:03:00,VALID,0,VALID,92.1303,VALID,-0.0169808,VALID,19.2913,VALID,208,VALID,0.909668,
1999-08-11, 02:04:00,VALID,0,VALID,92.3109,VALID,0,VALID,19.2945,VALID,215,VALID,0.985899,
1999-08-11, 02:05:00,VALID,0,VALID,92.5474,VALID,0.0339617,VALID,19.2883,VALID,232,VALID,0.940245,
1999-08-11, 02:06:00,VALID,0,VALID,92.8081,VALID,0,VALID,19.259,VALID,210,VALID,0.806027,
1999-08-11, 02:07:00,VALID,0,VALID,92.981,VALID,-0.0169808,VALID,19.2398,VALID,220,VALID,0.633018,
1999-08-11, 02:08:00,VALID,0,VALID,93.1539,VALID,0.0169808,VALID,19.2145,VALID,201,VALID,0.48266,
1999-08-11, 02:09:00,VALID,0,VALID,93.1959,VALID,0,VALID,19.1851,VALID,173,VALID,0.374053,
1999-08-11, 02:10:01,VALID,0,VALID,93.1756,VALID,-0.0169808,VALID,19.1628,VALID,190,VALID,0.548277,
1999-08-11, 02:11:00,VALID,0,VALID,93.2251,VALID,0,VALID,19.1588,VALID,243,VALID,0.431377,
1999-08-11, 02:12:00,VALID,0,VALID,93.2506,VALID,0,VALID,19.1625,VALID,229,VALID,0.282306,
1999-08-11, 02:13:00,VALID,0,VALID,93.1908,VALID,0.0169808,VALID,19.1625,VALID,228,VALID,0.27567,
1999-08-11, 02:14:00,VALID,0,VALID,93.1005,VALID,0.0169808,VALID,19.1519,VALID,223,VALID,0.491776,
1999-08-11, 02:15:00,VALID,0,VALID,92.8513,VALID,0.0339617,VALID,19.1658,VALID,222,VALID,0.308475,
1999-08-11, 02:16:00,VALID,0,VALID,92.8666,VALID,0,VALID,19.1787,VALID,237,VALID,0.0275391,
1999-08-11, 02:17:00,VALID,0,VALID,92.8424,VALID,0,VALID,19.1978,VALID,269,VALID,0.0131579,
1999-08-11, 02:18:00,VALID,0,VALID,92.92,VALID,0,VALID,19.2239,VALID,89,VALID,0.799753,
1999-08-11, 02:19:00,VALID,0,VALID,93.1666,VALID,0,VALID,19.1911,VALID,88,VALID,1.19182,
1999-08-11, 02:20:00,VALID,0,VALID,93.454,VALID,0,VALID,19.1302,VALID,80,VALID,1.01604,
1999-08-11, 02:21:00,VALID,0,VALID,93.7249,VALID,0,VALID,19.0716,VALID,89,VALID,0.876709,
1999-08-11, 02:22:00,VALID,0,VALID,94.0886,VALID,0,VALID,19.0427,VALID,90,VALID,0.807165,
1999-08-11, 02:23:00,VALID,0,VALID,94.6112,VALID,0.0169808,VALID,18.9779,VALID,82,VALID,0.943623,
1999-08-11, 02:24:00,VALID,0,VALID,95.3653,VALID,0.0339617,VALID,18.913,VALID,91,VALID,0.925223,
1999-08-11, 02:25:00,VALID,0,VALID,95.8701,VALID,0,VALID,18.8556,VALID,91,VALID,0.430921,
1999-08-11, 02:26:00,VALID,0,VALID,96.1575,VALID,0,VALID,18.8103,VALID,125,VALID,0.25,
1999-08-11, 02:27:00,VALID,0,VALID,96.3838,VALID,0,VALID,18.7554,VALID,146,VALID,0.388258,
1999-08-11, 02:28:00,VALID,0,VALID,96.5746,VALID,-0.0849042,VALID,18.7268,VALID,137,VALID,0.717348,
1999-08-11, 02:29:00,VALID,0,VALID,96.6865,VALID,-0.0509425,VALID,18.6848,VALID,128,VALID,0.930321,
1999-08-11, 02:30:00,VALID,0,VALID,96.717,VALID,-0.0509425,VALID,18.6534,VALID,125,VALID,1.08615,
1999-08-11, 02:31:00,VALID,0,VALID,96.8085,VALID,-0.0849042,VALID,18.6237,VALID,141,VALID,0.981027,
1999-08-11, 02:32:01,VALID,0,VALID,97.0031,VALID,-0.0679233,VALID,18.5943,VALID,148,VALID,1.04276,
1999-08-11, 02:33:00,VALID,0,VALID,97.1519,VALID,-0.0679233,VALID,18.5817,VALID,155,VALID,0.940104,
1999-08-11, 02:34:00,VALID,0,VALID,97.2561,VALID,-0.0679233,VALID,18.5528,VALID,169,VALID,0.75293,
1999-08-11, 02:35:00,VALID,0,VALID,97.3528,VALID,-0.0509425,VALID,18.5302,VALID,180,VALID,0.716077,
1999-08-11, 02:36:00,VALID,0,VALID,97.3795,VALID,-0.0509425,VALID,18.5233,VALID,183,VALID,0.99815,
1999-08-11, 02:37:00,VALID,0,VALID,97.2574,VALID,-0.0169808,VALID,18.5364,VALID,195,VALID,0.903577,
1999-08-11, 02:38:00,VALID,0,VALID,97.0832,VALID,-0.0509425,VALID,18.5526,VALID,206,VALID,0.745888,
1999-08-11, 02:39:00,VALID,0,VALID,96.867,VALID,-0.0509425,VALID,18.5657,VALID,190,VALID,1.06934,
1999-08-11, 02:40:00,VALID,0,VALID,96.6305,VALID,-0.0509425,VALID,18.5978,VALID,206,VALID,1.0545,
1999-08-11, 02:41:00,VALID,0,VALID,96.3368,VALID,-0.0509425,VALID,18.6239,VALID,206,VALID,0.754223,
1999-08-11, 02:42:00,VALID,0,VALID,96.0074,VALID,-0.0679233,VALID,18.6698,VALID,195,VALID,0.685045,
1999-08-11, 02:43:01,VALID,0,VALID,95.7633,VALID,0,VALID,18.7261,VALID,197,VALID,0.964021,
1999-08-11, 02:44:00,VALID,0,VALID,95.5458,VALID,0.0169808,VALID,18.7616,VALID,220,VALID,1.3346,
1999-08-11, 02:45:00,VALID,0,VALID,95.2851,VALID,0.0169808,VALID,18.8173,VALID,218,VALID,1.34706,
1999-08-11, 02:46:00,VALID,0,VALID,95.2114,VALID,0,VALID,18.8235,VALID,227,VALID,1.3764,
1999-08-11, 02:47:00,VALID,0,VALID,95.3818,VALID,0.0339617,VALID,18.8011,VALID,225,VALID,1.07644,
1999-08-11, 02:48:00,VALID,0,VALID,95.5547,VALID,0.0169808,VALID,18.7554,VALID,219,VALID,1.37141,
1999-08-11, 02:49:00,VALID,0,VALID,95.9845,VALID,0,VALID,18.7035,VALID,214,VALID,1.28326,
1999-08-11, 02:50:00,VALID,0,VALID,96.2999,VALID,-0.0169808,VALID,18.6583,VALID,212,VALID,1.1875,
1999-08-11, 02:51:00,VALID,0,VALID,96.558,VALID,0,VALID,18.6264,VALID,212,VALID,0.904119,
1999-08-11, 02:52:00,VALID,0,VALID,96.7475,VALID,0.0339617,VALID,18.61,VALID,215,VALID,1.00059,
1999-08-11, 02:53:00,VALID,0,VALID,96.8441,VALID,0.0169808,VALID,18.5839,VALID,207,VALID,0.816612,
1999-08-11, 02:54:00,VALID,0,VALID,96.8785,VALID,0.0339617,VALID,18.5708,VALID,202,VALID,1.10526,
1999-08-11, 02:55:00,VALID,0,VALID,96.9064,VALID,0.0509425,VALID,18.5639,VALID,203,VALID,0.917352,
1999-08-11, 02:56:00,VALID,0,VALID,96.8098,VALID,0.0679233,VALID,18.6068,VALID,212,VALID,1.27919,
1999-08-11, 02:57:00,VALID,0,VALID,96.5491,VALID,0,VALID,18.658,VALID,210,VALID,1.08496,
1999-08-11, 02:58:00,VALID,0,VALID,96.1956,VALID,-0.0509425,VALID,18.7146,VALID,208,VALID,1.29345,
1999-08-11, 02:59:00,VALID,0,VALID,95.8167,VALID,-0.101885,VALID,18.7767,VALID,198,VALID,1.06588,
1999-08-11, 03:00:00,VALID,0,VALID,95.4899,VALID,-0.0679233,VALID,18.8143,VALID,200,VALID,1.12946,
1999-08-11, 03:01:00,VALID,0,VALID,95.2495,VALID,-0.0849042,VALID,18.857,VALID,195,VALID,1.34766,
1999-08-11, 03:02:00,VALID,0,VALID,95.0346,VALID,-0.0169808,VALID,18.8891,VALID,198,VALID,1.15225,
1999-08-11, 03:03:00,VALID,0,VALID,94.8566,VALID,-0.0509425,VALID,18.899,VALID,212,VALID,1.1366,
1999-08-11, 03:04:00,VALID,0,VALID,94.7066,VALID,-0.0509425,VALID,18.9209,VALID,208,VALID,0.811298,
1999-08-11, 03:05:00,VALID,0,VALID,94.5997,VALID,-0.0849042,VALID,18.9477,VALID,211,VALID,1.22635,
1999-08-11, 03:06:01,VALID,0,VALID,94.6684,VALID,-0.0679233,VALID,18.944,VALID,215,VALID,0.902449,
1999-08-11, 03:07:00,VALID,0,VALID,94.8134,VALID,-0.0849042,VALID,18.9405,VALID,206,VALID,1.4,
1999-08-11, 03:08:00,VALID,0,VALID,94.9431,VALID,-0.0509425,VALID,18.938,VALID,197,VALID,1.10609,
1999-08-11, 03:09:00,VALID,0,VALID,94.9914,VALID,-0.0679233,VALID,18.9117,VALID,192,VALID,1.4008,
1999-08-11, 03:10:00,VALID,0,VALID,95.0563,VALID,-0.0509425,VALID,18.8727,VALID,202,VALID,1.3498,
1999-08-11, 03:11:00,VALID,0,VALID,95.1809,VALID,-0.101885,VALID,18.857,VALID,198,VALID,1.23787,
1999-08-11, 03:12:00,VALID,0,VALID,95.3195,VALID,-0.0849042,VALID,18.8274,VALID,213,VALID,1.40769,
1999-08-11, 03:13:00,VALID,0,VALID,95.4403,VALID,-0.0849042,VALID,18.8182,VALID,210,VALID,1.57463,
1999-08-11, 03:14:00,VALID,0,VALID,95.4962,VALID,-0.0849042,VALID,18.8173,VALID,212,VALID,1.60156,
1999-08-11, 03:15:00,VALID,0,VALID,95.631,VALID,-0.0849042,VALID,18.8115,VALID,205,VALID,1.64966,
1999-08-11, 03:16:00,VALID,0,VALID,95.9782,VALID,-0.0679233,VALID,18.7887,VALID,210,VALID,1.40282,
1999-08-11, 03:17:01,VALID,0,VALID,96.1524,VALID,-0.0509425,VALID,18.7665,VALID,201,VALID,0.864865,
1999-08-11, 03:18:00,VALID,0,VALID,96.1371,VALID,-0.0849042,VALID,18.7146,VALID,188,VALID,1.49308,
1999-08-11, 03:19:00,VALID,0,VALID,96.1765,VALID,-0.0849042,VALID,18.7017,VALID,202,VALID,1.55859,
1999-08-11, 03:20:00,VALID,0,VALID,96.202,VALID,-0.0509425,VALID,18.6753,VALID,200,VALID,1.38472,
1999-08-11, 03:21:00,VALID,0,VALID,96.2414,VALID,-0.0339617,VALID,18.6924,VALID,208,VALID,1.29167,
1999-08-11, 03:22:00,VALID,0,VALID,96.1816,VALID,-0.101885,VALID,18.6694,VALID,195,VALID,1.11679,
1999-08-11, 03:23:00,VALID,0,VALID,95.9998,VALID,-0.0679233,VALID,18.6433,VALID,197,VALID,1.86085,
1999-08-11, 03:24:00,VALID,0,VALID,95.9718,VALID,-0.0509425,VALID,18.65,VALID,216,VALID,1.43539,
1999-08-11, 03:25:00,VALID,0,VALID,96.1409,VALID,-0.0849042,VALID,18.65,VALID,217,VALID,1.34531,
1999-08-11, 03:26:00,VALID,0,VALID,96.2325,VALID,-0.0679233,VALID,18.6502,VALID,202,VALID,1.78906,
1999-08-11, 03:27:00,VALID,0,VALID,96.3444,VALID,-0.0679233,VALID,18.6366,VALID,205,VALID,2.07718,
1999-08-11, 03:28:01,VALID,0,VALID,96.3851,VALID,-0.0849042,VALID,18.6599,VALID,222,VALID,1.7,
1999-08-11, 03:29:00,VALID,0,VALID,96.3825,VALID,-0.0339617,VALID,18.6857,VALID,215,VALID,2.01686,
1999-08-11, 03:30:00,VALID,0,VALID,96.38,VALID,-0.0509425,VALID,18.7116,VALID,212,VALID,1.73951,
1999-08-11, 03:31:00,VALID,0,VALID,96.3571,VALID,-0.101885,VALID,18.7243,VALID,213,VALID,1.75946,
1999-08-11, 03:32:00,VALID,0,VALID,96.2172,VALID,-0.0509425,VALID,18.7538,VALID,208,VALID,1.90296,
1999-08-11, 03:33:00,VALID,0,VALID,96.0659,VALID,-0.0849042,VALID,18.7765,VALID,212,VALID,0.863281,
1999-08-11, 03:34:00,VALID,0,VALID,95.7887,VALID,-0.0679233,VALID,18.7864,VALID,204,VALID,1.242,
1999-08-11, 03:35:00,VALID,0,VALID,95.5547,VALID,-0.0679233,VALID,18.8023,VALID,234,VALID,1.10262,
1999-08-11, 03:36:00,VALID,0,VALID,95.2445,VALID,-0.101885,VALID,18.8445,VALID,218,VALID,1.19665,
1999-08-11, 03:37:00,VALID,0,VALID,95.0715,VALID,-0.0849042,VALID,18.8602,VALID,219,VALID,1.5588,
1999-08-11, 03:38:00,VALID,0,VALID,94.9571,VALID,-0.0679233,VALID,18.896,VALID,222,VALID,1.30602,
1999-08-11, 03:39:01,VALID,0,VALID,94.8248,VALID,-0.0679233,VALID,18.9126,VALID,224,VALID,1.44531,
1999-08-11, 03:40:00,VALID,0,VALID,94.6493,VALID,-0.0679233,VALID,18.9119,VALID,218,VALID,1.13602,
1999-08-11, 03:41:00,VALID,0,VALID,94.367,VALID,-0.0849042,VALID,18.9085,VALID,221,VALID,1.34438,
1999-08-11, 03:42:00,VALID,0,VALID,93.6867,VALID,-0.0679233,VALID,18.9385,VALID,225,VALID,1.51415,
1999-08-11, 03:43:00,VALID,0,VALID,93.1438,VALID,-0.0339617,VALID,18.9793,VALID,222,VALID,1.22478,
1999-08-11, 03:44:00,VALID,0,VALID,92.817,VALID,-0.0679233,VALID,19.0514,VALID,222,VALID,1.43503,
1999-08-11, 03:45:00,VALID,0,VALID,92.6478,VALID,-0.0679233,VALID,19.0832,VALID,207,VALID,0.89465,
1999-08-11, 03:46:00,VALID,0,VALID,92.6211,VALID,-0.0509425,VALID,19.0996,VALID,222,VALID,0.983203,
1999-08-11, 03:47:00,VALID,0,VALID,92.7038,VALID,-0.0509425,VALID,19.0998,VALID,233,VALID,0.829153,
1999-08-11, 03:48:00,VALID,0,VALID,92.6059,VALID,-0.101885,VALID,19.0797,VALID,226,VALID,0.642475,
1999-08-11, 03:49:00,VALID,0,VALID,92.4278,VALID,-0.0849042,VALID,19.0772,VALID,247,VALID,0.526521,
1999-08-11, 03:50:01,VALID,0,VALID,91.5428,VALID,-0.0679233,VALID,19.0608,VALID,228,VALID,0.628495,
1999-08-11, 03:51:00,VALID,0,VALID,91.3037,VALID,-0.0679233,VALID,19.0929,VALID,246,VALID,0.727783,
1999-08-11, 03:52:00,VALID,0,VALID,90.9871,VALID,-0.0679233,VALID,19.1317,VALID,249,VALID,0.581174,
1999-08-11, 03:53:00,VALID,0,VALID,90.2788,VALID,-0.101885,VALID,19.1511,VALID,255,VALID,0.46326,
1999-08-11, 03:54:00,VALID,0,VALID,90.6514,VALID,-0.0679233,VALID,19.1931,VALID,267,VALID,0.0265625,
1999-08-11, 03:55:00,VALID,0,VALID,92.0387,VALID,-0.101885,VALID,19.2226,VALID,303,VALID,0.147615,
1999-08-11, 03:56:00,VALID,0,VALID,92.8386,VALID,-0.0849042,VALID,19.1769,VALID,337,VALID,0.294207,
1999-08-11, 03:57:00,VALID,0,VALID,93.4311,VALID,-0.101885,VALID,19.0996,VALID,359,VALID,0.620975,
1999-08-11, 03:58:00,VALID,0,VALID,94.011,VALID,-0.0169808,VALID,19.0014,VALID,341,VALID,0.393229,
1999-08-11, 03:59:00,VALID,0,VALID,94.5387,VALID,0.0169808,VALID,18.9304,VALID,315,VALID,0.175042,
1999-08-11, 04:00:00,VALID,0,VALID,94.9711,VALID,0.0339617,VALID,18.8655,VALID,291,VALID,0,
1999-08-11, 04:01:01,VALID,0,VALID,95.2699,VALID,0.0509425,VALID,18.8009,VALID,260,VALID,0.272545,
1999-08-11, 04:02:00,VALID,0,VALID,95.5229,VALID,0,VALID,18.7492,VALID,257,VALID,0.222862,
1999-08-11, 04:03:00,VALID,0,VALID,95.6781,VALID,0.0339617,VALID,18.688,VALID,221,VALID,0.236269,
1999-08-11, 04:04:00,VALID,0,VALID,95.7925,VALID,0,VALID,18.6197,VALID,134,VALID,0.606055,
1999-08-11, 04:05:00,VALID,0,VALID,95.9667,VALID,0.0509425,VALID,18.5521,VALID,146,VALID,0.71176,
1999-08-11, 04:06:00,VALID,0,VALID,96.3253,VALID,0.0849042,VALID,18.5059,VALID,136,VALID,0.938322,